All Spectrum Aviation - Van Nuys Airport - KVNY

HOME

Van Nuys Tower Recordings

Condor Squadron KVNY Webcam

Visit our Electronics Store

2015/07/31 12:51 KVNY 311251Z 13005KT 10SM CLR 21/17 A3001 RMK AO2 SLP154 T02060172
LATEST VAN NUYS ATIS IN MP3!
Older ATIS Recordings

Condor Squadron KVNY Webcam
Click to view larger images and timelapse / youtube videos!

HOME

Van Nuys Tower Recordings

Condor Squadron KVNY Webcam

Visit our Electronics Store